Olney-Noble, IL

5:28 AM CDT on May 23, 2017 (GMT -0500)
Olney-Noble

Weather History for KOLY - March, 2013

Change the Weather History Date:

Sunday, March 31, 2013

  Actual Average (KEVV) Record (KEVV)
Temperature  
Mean Temperature 56 °F -  
Max Temperature 64 °F 61 °F 84 °F (1981)
Min Temperature 48 °F 39 °F 19 °F (1923)
Degree Days  
Heating Degree Days 9    
Growing Degree Days 6 (Base 50)    
Moisture  
Dew Point 47 °F    
Average Humidity 78    
Maximum Humidity 100    
Minimum Humidity 49    
Precipitation  
Precipitation 0.00 in - - ()
Sea Level Pressure  
Sea Level Pressure 29.87 in    
Wind  
Wind Speed 3 mph (West)    
Max Wind Speed 14 mph    
Max Gust Speed 20 mph    
Visibility 7 miles    
Events Rain    
Averages and records for this station are not official NWS values.
T = Trace of Precipitation, MM = Missing Value Source: NWS Daily Summary

Daily Weather History Graph

Daily Weather History Graph

Search for Another Location

Airport or City:

Trip Planner

Search our weather history database for the weather conditions in past years. The results will help you decide how hot, cold, wet, or windy it might be!

Date:

Astronomy

Mar. 31, 2013 Rise Set
Actual Time 6:38 AM CDT 7:15 PM CDT
Civil Twilight 6:11 AM CDT 7:42 PM CDT
Nautical Twilight 5:40 AM CDT 8:13 PM CDT
Astronomical Twilight 5:07 AM CDT 8:46 PM CDT
Moon No Moon Rise 9:28 AM CDT (3/31)
Length of Visible Light 13h 30m
Length of Day
12h 36m
Waning Gibbous, 77% of the Moon is Illuminated
Mar 31
Waning Gibbous
Apr 2
Last Quarter
Apr 10
New
Apr 18
First Quarter
Apr 25
Full

Hourly Weather History & Observations

Time (CDT) Temp. Dew Point Humidity Pressure Visibility Wind Dir Wind Speed Gust Speed Precip Events Conditions
12:15 AM 48.2 °F 46.4 °F 93% 29.91 in 5.0 mi Calm Calm - N/A   Overcast
12:35 AM 48.2 °F 48.2 °F 100% 29.91 in 5.0 mi Calm Calm - N/A   Overcast
12:55 AM 48.2 °F 46.4 °F 93% 29.90 in 5.0 mi Calm Calm - N/A   Overcast
1:15 AM 48.2 °F 46.4 °F 93% 29.90 in 4.0 mi Calm Calm - N/A   Overcast
1:35 AM 48.2 °F 48.2 °F 100% 29.89 in 4.0 mi Calm Calm - N/A   Overcast
1:55 AM 48.2 °F 48.2 °F 100% 29.89 in 4.0 mi Calm Calm - N/A   Overcast
2:15 AM 48.2 °F 48.2 °F 100% 29.89 in 3.0 mi Calm Calm - N/A   Overcast
2:35 AM 48.2 °F 48.2 °F 100% 29.88 in 4.0 mi Calm Calm - N/A   Overcast
2:55 AM 48.2 °F 48.2 °F 100% 29.87 in 4.0 mi Calm Calm - N/A   Overcast
3:15 AM 48.2 °F 48.2 °F 100% 29.86 in 4.0 mi Calm Calm - N/A   Overcast
3:35 AM 48.2 °F 48.2 °F 100% 29.86 in 2.5 mi Calm Calm - N/A   Overcast
3:55 AM 48.2 °F 48.2 °F 100% 29.86 in 2.5 mi Calm Calm - N/A   Overcast
4:15 AM 48.2 °F 48.2 °F 100% 29.86 in 2.5 mi WSW 4.6 mph - N/A   Overcast
4:35 AM 48.2 °F 48.2 °F 100% 29.85 in 1.8 mi Calm Calm - N/A   Light Drizzle
4:55 AM 48.2 °F 48.2 °F 100% 29.85 in 2.0 mi Calm Calm - N/A   Overcast
5:15 AM 48.2 °F 48.2 °F 100% 29.85 in 2.0 mi Calm Calm - N/A   Overcast
5:35 AM 48.2 °F 48.2 °F 100% 29.86 in 2.0 mi Calm Calm - N/A   Overcast
5:55 AM 48.2 °F 48.2 °F 100% 29.87 in 2.0 mi West 3.5 mph - N/A   Overcast
6:15 AM 48.2 °F 48.2 °F 100% 29.86 in 2.0 mi WSW 3.5 mph - N/A   Overcast
6:35 AM 48.2 °F 48.2 °F 100% 29.86 in 1.8 mi West 5.8 mph - N/A   Overcast
6:55 AM 48.2 °F 48.2 °F 100% 29.87 in 1.0 mi West 5.8 mph - N/A   Overcast
7:15 AM 48.2 °F 48.2 °F 100% 29.87 in 1.5 mi West 3.5 mph - N/A   Overcast
7:35 AM 48.2 °F 48.2 °F 100% 29.87 in 1.5 mi West 5.8 mph - N/A   Overcast
7:55 AM 48.2 °F 48.2 °F 100% 29.87 in 1.5 mi WNW 6.9 mph - N/A   Overcast
8:15 AM 48.2 °F 48.2 °F 100% 29.88 in 2.0 mi West 6.9 mph - N/A   Overcast
8:35 AM 48.2 °F 48.2 °F 100% 29.90 in 2.5 mi West 6.9 mph - N/A   Overcast
8:55 AM 50.0 °F 48.2 °F 94% 29.89 in 2.5 mi WNW 6.9 mph - N/A   Overcast
9:15 AM 50.0 °F 48.2 °F 94% 29.90 in 3.0 mi WNW 5.8 mph - N/A   Overcast
9:35 AM 50.0 °F 48.2 °F 94% 29.90 in 3.0 mi WNW 4.6 mph - N/A   Overcast
9:55 AM 50.0 °F 48.2 °F 94% 29.89 in 4.0 mi Calm Calm - N/A   Mostly Cloudy
10:15 AM 51.8 °F 48.2 °F 88% 29.90 in 4.0 mi WNW 5.8 mph - N/A   Mostly Cloudy
10:35 AM 51.8 °F 48.2 °F 88% 29.91 in 5.0 mi WNW 6.9 mph - N/A   Overcast
10:55 AM 53.6 °F 48.2 °F 82% 29.91 in 5.0 mi WNW 5.8 mph - N/A   Mostly Cloudy
11:15 AM 55.4 °F 48.2 °F 77% 29.91 in 7.0 mi WNW 4.6 mph - N/A   Mostly Cloudy
11:35 AM 55.4 °F 48.2 °F 77% 29.90 in 7.0 mi SW 4.6 mph - N/A   Scattered Clouds
11:55 AM 57.2 °F 48.2 °F 72% 29.88 in 7.0 mi Calm Calm - N/A   Scattered Clouds
12:15 PM 59.0 °F 48.2 °F 67% 29.87 in 7.0 mi West 3.5 mph - N/A   Scattered Clouds
12:35 PM 57.2 °F 48.2 °F 72% 29.86 in 10.0 mi WNW 5.8 mph - N/A   Scattered Clouds
12:55 PM 59.0 °F 48.2 °F 67% 29.86 in 10.0 mi Calm Calm - N/A   Mostly Cloudy
1:15 PM 59.0 °F 48.2 °F 67% 29.86 in 10.0 mi West 4.6 mph - N/A   Overcast
1:35 PM 62.6 °F 48.2 °F 59% 29.87 in 10.0 mi SW 3.5 mph - N/A   Mostly Cloudy
1:55 PM 60.8 °F 48.2 °F 63% 29.87 in 10.0 mi WSW 4.6 mph - N/A   Overcast
2:15 PM 60.8 °F 48.2 °F 63% 29.86 in 10.0 mi SW 5.8 mph - N/A   Mostly Cloudy
2:35 PM 62.6 °F 48.2 °F 59% 29.86 in 10.0 mi SW 4.6 mph - N/A   Mostly Cloudy
2:55 PM 62.6 °F 46.4 °F 55% 29.85 in 10.0 mi WSW 6.9 mph - N/A   Scattered Clouds
3:15 PM 64.4 °F 48.2 °F 56% 29.85 in 10.0 mi WSW 9.2 mph - N/A   Scattered Clouds
3:35 PM 64.4 °F 48.2 °F 56% 29.85 in 10.0 mi West 10.4 mph - N/A   Scattered Clouds
3:55 PM 64.4 °F 48.2 °F 56% 29.85 in 10.0 mi West 10.4 mph - N/A   Clear
4:15 PM 64.4 °F 48.2 °F 56% 29.84 in 10.0 mi West 9.2 mph - N/A   Clear
4:35 PM 64.4 °F 44.6 °F 49% 29.84 in 10.0 mi West 13.8 mph 18.4 mph N/A   Scattered Clouds
4:55 PM 64.4 °F 44.6 °F 49% 29.84 in 10.0 mi West 11.5 mph - N/A   Scattered Clouds
5:15 PM 64.4 °F 44.6 °F 49% 29.84 in 10.0 mi West 10.4 mph - N/A   Mostly Cloudy
5:35 PM 62.6 °F 46.4 °F 55% 29.84 in 10.0 mi West 5.8 mph - N/A   Mostly Cloudy
5:55 PM 62.6 °F 46.4 °F 55% 29.84 in 10.0 mi WSW 5.8 mph - N/A Rain Light Rain
6:15 PM 60.8 °F 44.6 °F 55% 29.84 in 10.0 mi West 5.8 mph - N/A   Mostly Cloudy
6:35 PM 60.8 °F 44.6 °F 55% 29.84 in 10.0 mi SW 4.6 mph - N/A   Overcast
6:55 PM 59.0 °F 42.8 °F 55% 29.84 in 10.0 mi Calm Calm - N/A   Mostly Cloudy
7:15 PM 59.0 °F 42.8 °F 55% 29.84 in 10.0 mi WSW 10.4 mph 19.6 mph N/A   Overcast
7:35 PM 59.0 °F 44.6 °F 59% 29.84 in 10.0 mi WSW 5.8 mph - N/A   Overcast
7:55 PM 57.2 °F 44.6 °F 63% 29.84 in 10.0 mi WSW 3.5 mph - N/A   Overcast
8:15 PM 57.2 °F 44.6 °F 63% 29.85 in 10.0 mi WSW 3.5 mph - N/A   Overcast
8:35 PM 57.2 °F 44.6 °F 63% 29.86 in 10.0 mi WSW 4.6 mph - N/A   Overcast
8:55 PM 57.2 °F 44.6 °F 63% 29.86 in 10.0 mi West 6.9 mph - N/A   Mostly Cloudy
9:15 PM 55.4 °F 44.6 °F 67% 29.87 in 10.0 mi West 4.6 mph - N/A   Scattered Clouds
9:35 PM 53.6 °F 44.6 °F 72% 29.87 in 10.0 mi WNW 5.8 mph - N/A   Clear
9:55 PM 55.4 °F 44.6 °F 67% 29.88 in 10.0 mi WNW 9.2 mph - N/A   Clear
10:15 PM 53.6 °F 44.6 °F 72% 29.88 in 10.0 mi NW 9.2 mph - N/A   Clear
10:35 PM 53.6 °F 44.6 °F 72% 29.89 in 10.0 mi NW 9.2 mph - N/A   Scattered Clouds
10:55 PM 51.8 °F 42.8 °F 71% 29.89 in 10.0 mi NNW 6.9 mph - N/A   Scattered Clouds
11:15 PM 51.8 °F 41.0 °F 67% 29.90 in 10.0 mi NNW 8.1 mph - N/A   Scattered Clouds
11:35 PM 51.8 °F 39.2 °F 62% 29.90 in 10.0 mi NW 11.5 mph - N/A   Scattered Clouds
11:55 PM 51.8 °F 39.2 °F 62% 29.90 in 10.0 mi NNW 11.5 mph - N/A   Clear